Zurück zum Katalog

ONEWEB-0555

AktivKommunikationPO
NORAD 56057·PAYLOAD·🇬🇧 United Kingdom

Gestartet Mar 26, 2023 von Satish Dhawan Space Centre

Loading…

Nächste Überflüge (nächste 24 Stunden)

TLE

AktuellSource: CelesTrak SupGP

Epoche: Sep 14, 2026, 17:45 UTC

1 56057C 23043M   26257.73973796  .00002857  00000+0  74827-2 0  2576
2 56057  87.9146 210.9905 0001866  95.3104 302.9961 13.16587891    19

Verfolge ONEWEB-0555 in Echtzeit mit AllMySat

Download on the App Store